Location: Brno
(49.2000°N, 16.6330°E)
Time: 22:36:09
(UTC+02:00)

BREEZE M DEB (TANK) - Visible Passes

Search period start: 23 October 2014 00:00
Search period end: 01 November 2014 23:00
Orbit: 307 x 12186 km, 49.5° (Epoch: 22 October)

Date Brightness Start Highest point End Pass type
(mag) Time Alt. Az. Time Alt. Az. Time Alt. Az.
23 Oct 5.7 18:33:59 10° SSW 19:07:21 38° SE 19:15:06 18° E visible
23 Oct 5.9 23:01:58 10° W 23:10:24 30° W 23:10:24 30° W visible
24 Oct 5.9 18:02:58 10° S 18:37:08 35° SE 18:46:54 12° E visible
24 Oct 5.5 22:30:07 10° WSW 22:42:12 40° WSW 22:42:12 40° WSW visible
25 Oct 6.2 17:32:29 10° S 18:06:48 31° SE 18:17:50 10° E visible
25 Oct 5.1 21:57:55 10° WSW 22:13:57 53° WSW 22:13:57 53° WSW visible
26 Oct 4.7 20:25:23 10° WSW 20:45:40 68° SW 20:45:40 68° SW visible
27 Oct 4.5 19:52:33 10° WSW 20:17:16 73° SSE 20:17:21 73° SSE visible
28 Oct 4.6 19:19:29 10° SW 19:47:27 68° SSE 19:48:59 61° ESE visible
29 Oct 4.8 18:46:16 10° SW 19:17:31 64° SSE 19:20:36 46° E visible
29 Oct 6.7 23:15:46 10° WNW 23:15:52 10° WNW 23:15:52 10° WNW visible
30 Oct 5.0 18:13:01 10° SW 18:47:27 59° SSE 18:52:10 34° E visible
30 Oct 6.4 22:44:43 10° W 22:47:26 16° W 22:47:26 16° W visible
31 Oct 5.3 17:39:50 10° SW 18:17:16 55° SSE 18:23:42 25° E visible
31 Oct 6.1 22:13:19 10° W 22:18:57 24° W 22:18:57 24° W visible
01 Nov 5.6 17:06:51 10° SSW 17:46:56 51° SSE 17:55:12 17° E visible
01 Nov 5.7 21:41:33 10° W 21:50:27 33° W 21:50:27 33° W visible
